RH
72 64 62 58 58 59 57 52 51 51 47 45 44 46 52 45 41 43 43 42 41 37 35 44 56 41 35 46 54 51 46 49
78 81 88 93 88 80 74 85 80 70 58 55 50 47 42 38 34 34 33 34 36 33 29 27 26 28 40 30 39 46 48 42
92 88 78 80 83 96 100 97 93 81 81 70 70 61 53 37 31 29 27 27 28 28 27 23 20 20 22 25 25 32 42 45
78 80 82 81 79 79 76 70 76 78 74 65 61 60 47 40 33 30 32 29 28 23 21 22 18 18 18 18 23 20 31 35
92 96 88 82 90 81 77 77 74 83 77 59 61 54 52 37 31 29 30 28 29 25 20 16 15 15 15 16 17 19 19 31
94 84 92 92 84 81 84 95 100 98 79 85 95 68 51 40 32 33 33 28 22 18 17 14 14 13 12 14 14 17 16 25
89 85 89 86 74 70 70 70 82 89 97 100 86 70 54 37 37 33 28 22 19 17 15 13 12 10 10 9 10 12 15 15
96 92 79 75 69 66 69 77 83 94 100 87 61 58 43 36 29 28 24 20 17 15 13 13 13 13 11 11 10 10 13 12
63 61 58 56 63 75 99 100 98 92 86 68 61 49 43 36 30 28 22 19 16 14 16 15 14 12 12 12 11 10 11 12
61 67 64 68 89 94 100 100 99 86 84 72 60 53 44 32 31 26 25 22 19 18 17 13 10 8 8 8 10 10 10 10
53 54 74 91 91 90 97 95 93 82 79 73 68 54 37 33 28 26 25 22 21 22 18 17 13 7 7 6 7 8 8 9
53 54 74 86 90 88 89 89 84 65 78 78 63 48 34 28 27 26 25 33 36 26 20 14 11 7 8 6 5 5 8 9
41 46 56 56 53 51 41 72 86 85 93 68 56 43 32 28 25 25 33 41 37 21 29 42 32 7 9 5 5 4 6 9
39 32 27 29 43 79 87 92 100 100 81 64 51 44 31 28 27 30 33 42 55 50 68 100 66 36 11 5 5 5 6 7
37 44 54 70 83 96 98 100 100 88 77 72 51 43 35 30 34 46 49 52 68 100 100 100 76 55 20 8 6 8 9 8
53 73 90 99 100 100 100 100 91 72 70 60 50 44 40 34 38 56 63 58 80 86 100 100 98 74 44 17 12 12 18 16
97 100 100 100 100 100 97 89 100 91 70 55 48 47 45 40 38 47 58 66 69 75 100 100 100 84 70 44 48 45 22 34
100 94 98 100 98 94 100 99 85 71 60 51 46 45 48 48 42 42 54 64 68 79 83 98 94 69 58 57 61 72 42 38
100 100 100 100 100 99 87 79 71 56 55 54 51 44 42 50 48 43 58 56 59 78 99 100 98 87 100 93 89 94 99 96
Wind_Speed
67 68 68 67 65 63 66 65 64 64 62 64 67 70 72 73 74 74 75 77 78 79 77 77 78 74 69 69 70 71 69 62
67 67 67 68 67 69 70 70 71 72 71 71 73 74 75 78 79 79 83 83 80 82 81 78 80 82 83 75 71 70 69 69
69 72 72 72 72 73 74 75 76 77 77 78 78 79 80 78 80 83 82 81 84 88 88 86 84 82 83 87 84 74 72 73
74 74 76 79 80 80 79 80 81 81 80 81 82 83 84 83 82 81 83 84 84 84 86 88 87 87 86 85 87 86 77 78
80 80 83 83 84 86 85 85 85 84 81 81 83 85 85 82 77 78 80 81 83 88 88 88 84 85 85 85 82 88 83 82
88 89 85 86 90 91 89 88 86 84 82 84 88 90 86 80 75 74 77 81 84 83 81 80 81 79 74 78 81 83 88 88
91 93 93 95 95 95 94 89 81 81 83 89 92 89 83 77 74 73 71 71 73 74 74 72 68 70 71 69 73 81 92 95
98 98 98 98 98 97 91 82 81 82 87 91 90 85 78 72 70 66 64 65 65 66 63 61 61 62 65 66 67 76 91 95
101 101 100 100 97 89 80 83 84 84 87 87 83 78 71 68 61 60 60 60 58 58 53 52 54 56 59 63 67 72 86 92
100 98 95 91 85 81 82 85 84 83 84 81 77 71 64 61 56 56 54 54 53 50 52 52 52 53 54 55 65 72 82 91
91 87 82 81 81 80 82 82 81 79 77 73 68 59 56 56 51 49 49 49 48 48 48 48 51 51 49 51 64 74 79 89
80 79 77 75 75 75 75 75 75 69 63 57 50 52 52 49 47 44 42 40 42 44 42 46 49 43 40 50 55 60 74 83
75 72 72 72 70 68 61 54 49 46 47 45 44 51 48 43 40 35 31 33 37 36 34 35 41 30 32 39 42 47 62 73
63 62 58 54 45 39 37 33 36 41 41 44 42 47 44 39 36 32 29 28 26 25 22 28 38 31 25 31 35 43 52 66
45 40 35 33 31 29 29 34 38 40 41 45 43 43 42 37 34 31 29 24 20 21 20 27 32 31 28 27 31 37 47 56
29 25 24 23 23 28 31 36 40 42 42 42 45 44 39 36 33 32 29 26 20 20 24 25 37 37 27 26 32 39 45 48
20 19 21 25 28 30 36 39 41 43 42 42 43 44 43 38 35 32 30 29 25 21 31 35 31 37 25 24 28 29 38 39
18 18 23 28 32 36 38 41 45 45 46 45 48 46 43 44 39 37 33 29 28 25 26 32 31 31 32 28 29 32 33 36
19 25 30 35 38 41 43 46 47 48 50 53 53 50 47 43 43 39 39 34 30 27 27 33 33 29 30 29 30 33 34 37
Wind_Direction
292 292 293 294 295 296 295 295 294 290 285 279 277 276 273 269 263 262 262 263 261 262 261 260 260 257 250 244 242 241 240 240
289 291 291 290 291 294 296 293 293 292 289 284 283 280 278 274 269 267 262 261 262 261 260 260 260 258 255 251 241 238 236 233
286 289 289 288 291 290 290 290 289 288 286 285 282 281 280 278 276 273 270 265 262 261 260 260 258 255 254 251 247 238 230 230
286 287 288 289 290 290 289 289 287 287 284 285 283 283 282 281 280 276 273 271 268 266 263 261 260 257 252 249 246 242 230 225
284 285 286 287 288 289 289 288 286 284 284 284 285 285 287 285 280 276 273 270 268 267 268 267 263 257 255 252 245 238 230 221
282 284 285 285 287 289 286 284 282 282 282 285 285 286 287 284 282 280 274 273 272 272 268 265 266 265 258 253 248 234 228 216
282 283 284 285 285 286 285 282 281 281 282 284 284 287 286 286 285 280 276 273 270 270 270 268 265 261 257 250 242 234 227 218
280 281 283 284 284 284 282 279 280 282 283 283 285 286 285 286 285 282 278 274 273 271 269 267 263 258 254 250 242 232 227 221
278 279 281 281 281 279 278 279 280 281 283 285 286 286 288 289 286 283 281 278 276 274 274 268 263 256 250 246 242 234 225 222
277 278 278 277 274 272 274 276 277 279 283 286 286 288 290 286 285 284 283 281 280 278 274 272 267 261 251 244 238 231 227 224
276 275 274 273 271 271 273 275 277 280 284 285 286 290 286 286 285 285 281 278 277 276 277 277 271 267 268 253 239 231 227 224
271 272 271 269 270 272 274 276 279 282 281 281 289 289 290 289 287 282 279 279 279 279 279 278 274 271 257 252 245 234 229 224
271 271 271 273 274 274 275 274 278 276 277 285 288 293 292 289 285 279 275 276 280 281 283 284 285 283 254 250 242 226 220 221
271 272 272 272 271 267 268 268 268 271 281 286 289 299 297 294 287 284 276 278 289 285 276 277 285 294 276 248 239 225 219 219
273 271 269 262 258 259 259 265 269 274 284 286 291 299 301 299 291 283 279 279 284 267 259 251 271 282 276 252 234 227 218 218
259 255 255 250 248 258 262 267 276 279 283 284 296 298 301 301 293 280 277 276 279 272 242 237 272 281 261 247 233 222 216 213
238 234 238 247 258 260 269 276 280 279 282 289 293 300 300 301 296 280 274 270 265 273 244 257 250 273 241 236 217 223 214 209
230 250 259 259 264 270 272 274 276 279 285 288 292 295 297 299 298 289 274 266 263 271 257 251 260 233 237 225 220 208 203 196
257 259 262 266 271 270 273 275 279 284 287 289 289 290 290 292 293 288 276 269 263 258 255 246 248 235 234 218 215 201 191 197